Weather History for Torrington, WY

Change the Weather History Date:

Thursday, August 1, 2013

  Actual Average Record
Temperature  
Mean Temperature 77 °F 74 °F  
Max Temperature 93 °F 90 °F 99 °F (2011)
Min Temperature 60 °F 58 °F 47 °F (2009)
Degree Days  
Heating Degree Days 0 0  
Month to date heating degree days 0 0  
Since 1 June heating degree days 36 81  
Since 1 July heating degree days 2 6  
Cooling Degree Days 12 9  
Month to date cooling degree days 12 9  
Year to date cooling degree days 499 425  
Since 1 June cooling degree days 460 407  
Growing Degree Days 27 (Base 50)    
Moisture  
Dew Point 57 °F    
Average Humidity 59    
Maximum Humidity 90    
Minimum Humidity 28    
Precipitation  
Precipitation 0.00 in 0.07 in 0.07 in (2011)
Month to date precipitation 0.00 0.07  
Year to date precipitation 5.93 9.76  
Sea Level Pressure  
Sea Level Pressure 29.88 in    
Wind  
Wind Speed 8 mph (SE)    
Max Wind Speed 17 mph    
Max Gust Speed 21 mph    
Visibility 10 miles    
Events      
T = Trace of Precipitation, MM = Missing Value Source: NWS Daily Summary

Daily Weather History Graph

Daily Weather History Graph

Search for Another Location

Airport:

Trip Planner

Search our weather history database for the weather conditions in past years. The results will help you decide how hot, cold, wet, or windy it might be!

Date:

Astronomy

Aug. 01, 2013 Rise Set
Actual Time 5:50 AM MDT 8:14 PM MDT
Civil Twilight 5:18 AM MDT 8:46 PM MDT
Nautical Twilight 4:39 AM MDT 9:25 PM MDT
Astronomical Twilight 3:55 AM MDT 10:08 PM MDT
Moon 1:27 AM MDT 4:26 PM MDT
Length of Visible Light 15h 27m
Length of Day
14h 24m
Waning Crescent, 23% of the Moon is Illuminated
Aug 1
Waning Crescent
Aug 6
New
Aug 14
First Quarter
Aug 20
Full
Aug 28
Last Quarter

Hourly Weather History & Observations

Time (MDT) Temp. Heat Index Dew Point Humidity Pressure Visibility Wind Dir Wind Speed Gust Speed Precip Events Conditions
12:53 AM 64.9 °F - 57.9 °F 78% 30.03 in 10.0 mi Calm Calm - N/A   Mostly Cloudy
1:53 AM 61.0 °F - 55.9 °F 83% 30.03 in 10.0 mi ENE 8.1 mph - N/A   Partly Cloudy
2:53 AM 61.0 °F - 55.9 °F 83% 30.00 in 10.0 mi ENE 3.5 mph - N/A   Clear
3:53 AM 66.0 °F - 57.0 °F 73% 29.98 in 10.0 mi South 6.9 mph - N/A   Clear
4:53 AM 64.9 °F - 57.9 °F 78% 29.96 in 10.0 mi SE 5.8 mph - N/A   Clear
5:53 AM 61.0 °F - 57.0 °F 87% 30.01 in 10.0 mi NNE 8.1 mph - N/A   Clear
6:53 AM 64.9 °F - 59.0 °F 81% 29.97 in 10.0 mi SE 9.2 mph - N/A   Clear
7:53 AM 69.1 °F - 59.0 °F 70% 29.94 in 10.0 mi SSE 17.3 mph - N/A   Clear
8:53 AM 73.9 °F - 60.1 °F 62% 29.92 in 10.0 mi South 9.2 mph - N/A   Clear
9:53 AM 77.0 °F - 60.1 °F 56% 29.91 in 10.0 mi South 6.9 mph - N/A   Clear
10:53 AM 79.0 °F - 59.0 °F 50% 29.91 in 10.0 mi Calm Calm - N/A   Clear
11:53 AM 82.0 °F 82.1 °F 59.0 °F 45% 29.88 in 10.0 mi Variable 4.6 mph - N/A   Clear
12:53 PM 86.0 °F 84.9 °F 57.0 °F 37% 29.86 in 10.0 mi Calm Calm - N/A   Clear
1:53 PM 89.1 °F 88.0 °F 57.9 °F 35% 29.83 in 10.0 mi SSE 5.8 mph - N/A   Clear
2:53 PM 93.0 °F 91.4 °F 55.9 °F 29% 29.78 in 10.0 mi NE 15.0 mph 18.4 mph N/A   Clear
3:53 PM 89.1 °F 88.0 °F 57.9 °F 35% 29.77 in 10.0 mi SSE 8.1 mph - N/A   Clear
4:53 PM 91.0 °F 90.0 °F 57.9 °F 33% 29.75 in 10.0 mi South 10.4 mph - N/A   Clear
5:53 PM 87.1 °F 85.9 °F 57.0 °F 36% 29.74 in 10.0 mi SSW 11.5 mph - N/A   Clear
6:53 PM 84.0 °F - 48.0 °F 28% 29.76 in 10.0 mi SW 11.5 mph - N/A   Clear
7:27 PM 75.2 °F - 57.2 °F 53% 29.95 in 10.0 mi NE 10.4 mph - N/A   Clear
7:53 PM 75.0 °F - 55.0 °F 50% 29.79 in 10.0 mi ESE 9.2 mph - N/A   Clear
8:53 PM 72.0 °F - 57.9 °F 61% 29.79 in 10.0 mi SSE 3.5 mph - N/A   Clear
9:53 PM 72.0 °F - 51.1 °F 48% 29.77 in 10.0 mi South 6.9 mph - N/A   Clear
10:53 PM 70.0 °F - 53.1 °F 55% 29.77 in 10.0 mi SSE 9.2 mph - N/A   Clear
11:53 PM 66.9 °F - 51.1 °F 57% 29.78 in 10.0 mi East 10.4 mph - N/A   Clear